Pagina principale
METAR-TAF:

METAR-TAF

Aeroporti :

Orange Municipal Airport

Orange, Massachusetts, Stati Uniti

latitudine: 42-34-18N, longitudine: 072-16-39W, altezza: 169 m

Osservazione

Il bollettino è stato emesso 29 minuti fa, alle 07:52 UTC
Vento calmo
Temperature 21°C
Umidità 88%
Pressione 1015 hPa
Visibilità: 8.0 km
Cielo sereno
foschia

METAR: KORE 160752Z AUTO 00000KT 5SM BR CLR 21/19 A2998 RMK AO2 SLP147 T02060194 $

Ora: 04:21 (08:21 UTC)


TAF: mancante

Osservazioni e previsioni meteorologiche di più di 4000 aeroporti (messaggi METAR e TAF).

Le stazioni disponibili sono rappresentate dai dischi gialli e rossi sulla carta.

Puntare il mouse per vedere il nome della stazione.

Clicca sopra per visualizzare le osservazioni e previsioni meteorologiche.

Per cambiare la mappa : fare clic sui pulsanti verdi con una croce nera per ingrandire, il pulsante verde con un trattino per diminuire, o sulla freccia verde per le mappe adiacenti.


METAR-TAF: